{"data":{"norad_id":54201,"intl_designator":"2022-141AW","name":"STARLINK-5199","alt_names":[],"object_type":"PAYLOAD","status":"ACTIVE","operator":null,"country":"US","launch_date":"2022-10-28","launch_site_code":"AFWTR","launch_vehicle":null,"mission":null,"orbit_class":"UNKNOWN","rcs_meters":null,"size_class":null,"mass_kg":null,"dimensions":null,"purposes":["comms"],"wikipedia_slug":null,"has_3d_model":false,"image_url":null,"decayed_at":null,"tle_current":{"epoch":"2026-05-25T00:52:41.471040Z","epoch_age_seconds":74996,"freshness":"FRESH","line1":"1 54201U 22141AW  26145.03659110 -.00000208  00000+0  50092-5 0  9996","line2":"2 54201  53.2132  11.3828 0001560  95.4812 264.6358 15.08842230197525","mean_motion":15.0884223,"eccentricity":0.000156,"inclination_deg":53.2132,"raan_deg":11.3828,"arg_perigee_deg":95.4812,"mean_anomaly_deg":264.6358,"bstar":5.0092e-6,"rev_number":19752,"period_min":95.437413625413,"perigee_km":538.65738447727,"apogee_km":540.81576103197,"semimajor_km":6917.8735727546,"source":"CELESTRAK","updated_at":"2026-05-25T13:38:17.685519Z"}}}